[Date Prev][Date Next][Thread Prev][Thread Next] - [Date Index][Thread Index][Author Index]

2 Line ISS Keps 3-10



ISS
1 25544U 98067A   02069.10412037  .00070479  00000-0  83688-3 0  1675
2 25544  51.6376 190.6981 0004790 166.8624 175.4445 15.60513751188570


----
Via the sarex mailing list at AMSAT.ORG courtesy of AMSAT-NA.
To unsubscribe, send "unsubscribe sarex" to Majordomo@amsat.org



AMSAT Top AMSAT Home